Year,Month,Day,Hour,Minute,Value (Times are PST for temperature in C)
2011,04,05,00,02,5.30
2011,04,05,00,03,5.30
2011,04,05,00,05,5.40
2011,04,05,00,06,5.40
2011,04,05,00,07,5.40
2011,04,05,00,08,5.50
2011,04,05,00,10,5.50
2011,04,05,00,11,5.60
2011,04,05,00,12,5.60
2011,04,05,00,13,5.60
2011,04,05,00,14,5.60
2011,04,05,00,15,5.70
2011,04,05,00,16,5.70
2011,04,05,00,17,5.70
2011,04,05,00,18,5.70
2011,04,05,00,20,5.70
2011,04,05,00,21,5.70
2011,04,05,00,22,5.70
2011,04,05,00,23,5.70
2011,04,05,00,24,5.70
2011,04,05,00,25,5.70
2011,04,05,00,26,5.70
2011,04,05,00,28,5.70
2011,04,05,00,29,5.60
2011,04,05,00,30,5.70
2011,04,05,00,31,5.70
2011,04,05,00,32,5.60
2011,04,05,00,33,5.60
2011,04,05,00,34,5.60
2011,04,05,00,35,5.60
2011,04,05,00,37,5.60
2011,04,05,00,38,5.60
2011,04,05,00,39,5.60
2011,04,05,00,40,5.50
2011,04,05,00,42,5.50
2011,04,05,00,43,5.50
2011,04,05,00,44,5.50
2011,04,05,00,46,5.50
2011,04,05,00,47,5.50
2011,04,05,00,48,5.50
2011,04,05,00,50,5.40
2011,04,05,00,51,5.40
2011,04,05,00,52,5.40
2011,04,05,00,54,5.40
2011,04,05,00,55,5.40
2011,04,05,00,56,5.40
2011,04,05,00,57,5.40
2011,04,05,00,59,5.40
2011,04,05,01,00,5.40
2011,04,05,01,01,5.40
2011,04,05,01,02,5.40
2011,04,05,01,03,5.40
2011,04,05,01,04,5.40
2011,04,05,01,05,5.40
2011,04,05,01,06,5.40
2011,04,05,01,07,5.40
2011,04,05,01,09,5.40
2011,04,05,01,10,5.30
2011,04,05,01,11,5.30
2011,04,05,01,12,5.30
2011,04,05,01,14,5.30
2011,04,05,01,15,5.30
2011,04,05,01,16,5.30
2011,04,05,01,17,5.20
2011,04,05,01,19,5.20
2011,04,05,01,20,5.10
2011,04,05,01,21,5.00
2011,04,05,01,22,4.90
2011,04,05,01,24,4.90
2011,04,05,01,25,4.80
2011,04,05,01,26,4.80
2011,04,05,01,27,4.80
2011,04,05,01,29,4.80
2011,04,05,01,30,4.80
2011,04,05,01,31,4.80
2011,04,05,01,32,4.80
2011,04,05,01,33,4.80
2011,04,05,01,34,4.80
2011,04,05,01,35,4.70
2011,04,05,01,36,4.70
2011,04,05,01,38,4.70
2011,04,05,01,39,4.70
2011,04,05,01,40,4.70
2011,04,05,01,41,4.70
2011,04,05,01,42,4.70
2011,04,05,01,43,4.70
2011,04,05,01,44,4.70
2011,04,05,01,45,4.70
2011,04,05,01,46,4.70
2011,04,05,01,47,4.70
2011,04,05,01,48,4.70
2011,04,05,01,49,4.70
2011,04,05,01,50,4.70
2011,04,05,01,52,4.70
2011,04,05,01,53,4.70
2011,04,05,01,54,4.70
2011,04,05,01,55,4.70
2011,04,05,01,56,4.70
2011,04,05,01,58,4.70
2011,04,05,01,59,4.70
2011,04,05,02,00,4.70
2011,04,05,02,01,4.70
2011,04,05,02,02,4.70
2011,04,05,02,03,4.70
2011,04,05,02,04,4.70
2011,04,05,02,05,4.70
2011,04,05,02,06,4.70
2011,04,05,02,07,4.70
2011,04,05,02,08,4.70
2011,04,05,02,09,4.70
2011,04,05,02,10,4.80
2011,04,05,02,11,4.80
2011,04,05,02,12,4.80
2011,04,05,02,13,4.80
2011,04,05,02,14,4.80
2011,04,05,02,15,4.90
2011,04,05,02,16,4.90
2011,04,05,02,17,4.90
2011,04,05,02,18,4.90
2011,04,05,02,19,4.90
2011,04,05,02,20,4.90
2011,04,05,02,21,4.90
2011,04,05,02,22,4.90
2011,04,05,02,23,4.90
2011,04,05,02,24,5.00
2011,04,05,02,25,5.00
2011,04,05,02,26,5.00
2011,04,05,02,27,5.00
2011,04,05,02,28,5.00
2011,04,05,02,30,5.10
2011,04,05,02,31,5.10
2011,04,05,02,32,5.10
2011,04,05,02,34,5.10
2011,04,05,02,35,5.20
2011,04,05,02,36,5.20
2011,04,05,02,37,5.20
2011,04,05,02,38,5.20
2011,04,05,02,39,5.20
2011,04,05,02,40,5.20
2011,04,05,02,41,5.20
2011,04,05,02,42,5.20
2011,04,05,02,43,5.20
2011,04,05,02,44,5.30
2011,04,05,02,45,5.30
2011,04,05,02,46,5.20
2011,04,05,02,47,5.10
2011,04,05,02,48,4.90
2011,04,05,02,49,4.70
2011,04,05,02,50,4.60
2011,04,05,02,51,4.40
2011,04,05,02,52,4.40
2011,04,05,02,53,4.40
2011,04,05,02,54,4.30
2011,04,05,02,55,4.30
2011,04,05,02,56,4.30
2011,04,05,02,57,4.30
2011,04,05,02,58,4.30
2011,04,05,02,59,4.30
2011,04,05,03,00,4.30
2011,04,05,03,01,4.30
2011,04,05,03,02,4.30
2011,04,05,03,03,4.30
2011,04,05,03,04,4.30
2011,04,05,03,05,4.30
2011,04,05,03,06,4.40
2011,04,05,03,07,4.40
2011,04,05,03,08,4.40
2011,04,05,03,09,4.40
2011,04,05,03,10,4.40
2011,04,05,03,11,4.40
2011,04,05,03,12,4.50
2011,04,05,03,13,4.50
2011,04,05,03,14,4.50
2011,04,05,03,15,4.50
2011,04,05,03,16,4.60
2011,04,05,03,17,4.60
2011,04,05,03,18,4.60
2011,04,05,03,19,4.60
2011,04,05,03,20,4.60
2011,04,05,03,21,4.60
2011,04,05,03,22,4.60
2011,04,05,03,23,4.60
2011,04,05,03,24,4.70
2011,04,05,03,25,4.60
2011,04,05,03,26,4.60
2011,04,05,03,27,4.60
2011,04,05,03,28,4.60
2011,04,05,03,29,4.60
2011,04,05,03,31,4.60
2011,04,05,03,32,4.60
2011,04,05,03,33,4.60
2011,04,05,03,34,4.60
2011,04,05,03,36,4.60
2011,04,05,03,37,4.50
2011,04,05,03,38,4.60
2011,04,05,03,40,4.60
2011,04,05,03,41,4.50
2011,04,05,03,42,4.50
2011,04,05,03,43,4.60
2011,04,05,03,44,4.60
2011,04,05,03,46,4.60
2011,04,05,03,47,4.60
2011,04,05,03,48,4.60
2011,04,05,03,49,4.60
2011,04,05,03,50,4.60
2011,04,05,03,52,4.60
2011,04,05,03,53,4.70
2011,04,05,03,54,4.80
2011,04,05,03,56,4.80
2011,04,05,03,57,4.90
2011,04,05,03,58,4.90
2011,04,05,03,59,4.90
2011,04,05,04,01,4.90
2011,04,05,04,02,4.90
2011,04,05,04,03,4.90
2011,04,05,04,05,4.90
2011,04,05,04,06,4.90
2011,04,05,04,07,4.90
2011,04,05,04,09,4.90
2011,04,05,04,10,4.90
2011,04,05,04,11,4.90
2011,04,05,04,12,4.90
2011,04,05,04,14,4.90
2011,04,05,04,15,4.90
2011,04,05,04,16,4.90
2011,04,05,04,17,4.90
2011,04,05,04,18,4.80
2011,04,05,04,19,4.80
2011,04,05,04,20,4.80
2011,04,05,04,21,4.80
2011,04,05,04,23,4.80
2011,04,05,04,24,4.80
2011,04,05,04,25,4.80
2011,04,05,04,26,4.70
2011,04,05,04,28,4.70
2011,04,05,04,29,4.70
2011,04,05,04,30,4.70
2011,04,05,04,31,4.70
2011,04,05,04,32,4.70
2011,04,05,04,33,4.70
2011,04,05,04,34,4.70
2011,04,05,04,35,4.70
2011,04,05,04,36,4.70
2011,04,05,04,37,4.70
2011,04,05,04,38,4.80
2011,04,05,04,39,4.70
2011,04,05,04,40,4.70
2011,04,05,04,41,4.70
2011,04,05,04,42,4.70
2011,04,05,04,43,4.70
2011,04,05,04,44,4.70
2011,04,05,04,45,4.70
2011,04,05,04,46,4.80
2011,04,05,04,47,4.80
2011,04,05,04,48,4.80
2011,04,05,04,49,4.80
2011,04,05,04,50,4.80
2011,04,05,04,51,4.80
2011,04,05,04,52,4.80
2011,04,05,04,53,4.80
2011,04,05,04,54,4.80
2011,04,05,04,55,4.80
2011,04,05,04,56,4.80
2011,04,05,04,57,4.80
2011,04,05,04,58,4.80
2011,04,05,04,59,4.80
2011,04,05,05,00,4.80
2011,04,05,05,01,4.80
2011,04,05,05,02,4.80
2011,04,05,05,03,4.80
2011,04,05,05,04,4.80
2011,04,05,05,05,4.80
2011,04,05,05,06,4.80
2011,04,05,05,07,4.80
2011,04,05,05,08,4.80
2011,04,05,05,09,4.80
2011,04,05,05,10,4.80
2011,04,05,05,11,4.80
2011,04,05,05,12,4.80
2011,04,05,05,13,4.80
2011,04,05,05,14,4.80
2011,04,05,05,15,4.80
2011,04,05,05,16,4.90
2011,04,05,05,17,4.90
2011,04,05,05,18,4.90
2011,04,05,05,19,4.90
2011,04,05,05,20,4.90
2011,04,05,05,21,4.90
2011,04,05,05,22,4.90
2011,04,05,05,23,4.90
2011,04,05,05,24,4.90
2011,04,05,05,25,4.90
2011,04,05,05,26,4.90
2011,04,05,05,27,4.90
2011,04,05,05,28,4.90
2011,04,05,05,29,4.90
2011,04,05,05,30,5.00
2011,04,05,05,31,5.00
2011,04,05,05,32,5.00
2011,04,05,05,33,5.00
2011,04,05,05,34,5.00
2011,04,05,05,35,5.00
2011,04,05,05,36,5.00
2011,04,05,05,37,5.00
2011,04,05,05,38,4.90
2011,04,05,05,39,4.90
2011,04,05,05,40,4.90
2011,04,05,05,41,5.00
2011,04,05,05,42,5.00
2011,04,05,05,43,5.10
2011,04,05,05,44,5.10
2011,04,05,05,45,5.10
2011,04,05,05,46,5.10
2011,04,05,05,47,5.20
2011,04,05,05,48,5.20
2011,04,05,05,49,5.20
2011,04,05,05,50,5.20
2011,04,05,05,51,5.20
2011,04,05,05,52,5.20
2011,04,05,05,53,5.20
2011,04,05,05,54,5.20
2011,04,05,05,55,5.20
2011,04,05,05,56,5.20
2011,04,05,05,57,5.20
2011,04,05,05,58,5.20
2011,04,05,05,59,5.20
2011,04,05,06,00,5.20
2011,04,05,06,01,5.20
2011,04,05,06,02,5.20
2011,04,05,06,03,5.10
2011,04,05,06,04,5.10
2011,04,05,06,05,5.10
2011,04,05,06,06,5.10
2011,04,05,06,07,5.00
2011,04,05,06,08,5.00
2011,04,05,06,09,4.90
2011,04,05,06,11,4.90
2011,04,05,06,12,4.90
2011,04,05,06,13,4.90
2011,04,05,06,14,4.90
2011,04,05,06,15,4.90
2011,04,05,06,16,4.90
2011,04,05,06,17,4.80
2011,04,05,06,18,4.80
2011,04,05,06,19,4.80
2011,04,05,06,20,4.80
2011,04,05,06,21,4.80
2011,04,05,06,22,4.80
2011,04,05,06,23,4.80
2011,04,05,06,24,4.80
2011,04,05,06,25,4.80
2011,04,05,06,26,4.80
2011,04,05,06,27,4.80
2011,04,05,06,28,4.80
2011,04,05,06,29,4.80
2011,04,05,06,30,4.80
2011,04,05,06,32,4.80
2011,04,05,06,33,4.80
2011,04,05,06,34,4.80
2011,04,05,06,35,4.80
2011,04,05,06,37,4.90
2011,04,05,06,38,4.90
2011,04,05,06,39,4.90
2011,04,05,06,41,4.80
2011,04,05,06,42,4.90
2011,04,05,06,43,4.90
2011,04,05,06,44,4.90
2011,04,05,06,46,4.90
2011,04,05,06,47,4.90
2011,04,05,06,48,4.90
2011,04,05,06,49,4.90
2011,04,05,06,50,4.90
2011,04,05,06,52,4.90
2011,04,05,06,53,4.90
2011,04,05,06,54,4.90
2011,04,05,06,55,4.90
2011,04,05,06,57,4.90
2011,04,05,06,58,4.90
2011,04,05,06,59,4.90
2011,04,05,07,01,4.90
2011,04,05,07,02,4.90
2011,04,05,07,03,4.90
2011,04,05,07,04,4.90
2011,04,05,07,06,4.90
2011,04,05,07,07,4.90
2011,04,05,07,08,4.90
2011,04,05,07,09,4.90
2011,04,05,07,11,4.90
2011,04,05,07,12,4.90
2011,04,05,07,13,4.90
2011,04,05,07,14,4.90
2011,04,05,07,16,4.90
2011,04,05,07,17,4.90
2011,04,05,07,18,4.90
2011,04,05,07,19,4.90
2011,04,05,07,21,4.90
2011,04,05,07,22,4.90
2011,04,05,07,23,4.90
2011,04,05,07,25,4.90
2011,04,05,07,26,4.90
2011,04,05,07,27,4.90
2011,04,05,07,28,4.90
2011,04,05,07,29,4.90
2011,04,05,07,31,4.90
2011,04,05,07,32,4.90
2011,04,05,07,33,5.00
2011,04,05,07,34,5.00
2011,04,05,07,36,5.00
2011,04,05,07,37,5.00
2011,04,05,07,38,5.00
2011,04,05,07,39,5.00
2011,04,05,07,40,5.00
2011,04,05,07,41,5.00
2011,04,05,07,42,5.00
2011,04,05,07,43,5.00
2011,04,05,07,44,5.00
2011,04,05,07,46,5.00
2011,04,05,07,47,5.00
2011,04,05,07,48,5.00
2011,04,05,07,50,5.10
2011,04,05,07,51,5.10
2011,04,05,07,52,5.10
2011,04,05,07,53,5.10
2011,04,05,07,55,5.10
2011,04,05,07,56,5.10
2011,04,05,07,57,5.10
2011,04,05,07,58,5.10
2011,04,05,07,59,5.10
2011,04,05,08,01,5.10
2011,04,05,08,02,5.10
2011,04,05,08,03,5.20
2011,04,05,08,04,5.20
2011,04,05,08,05,5.20
2011,04,05,08,06,5.20
2011,04,05,08,07,5.20
2011,04,05,08,08,5.30
2011,04,05,08,09,5.30
2011,04,05,08,10,5.30
2011,04,05,08,12,5.30
2011,04,05,08,13,5.30
2011,04,05,08,14,5.40
2011,04,05,08,16,5.40
2011,04,05,08,17,5.40
2011,04,05,08,18,5.40
2011,04,05,08,20,5.40
2011,04,05,08,21,5.40
2011,04,05,08,22,5.40
2011,04,05,08,24,5.50
2011,04,05,08,25,5.50
2011,04,05,08,26,5.50
2011,04,05,08,28,5.50
2011,04,05,08,29,5.50
2011,04,05,08,30,5.50
2011,04,05,08,31,5.50
2011,04,05,08,32,5.50
2011,04,05,08,34,5.60
2011,04,05,08,35,5.60
2011,04,05,08,36,5.60
2011,04,05,08,38,5.60
2011,04,05,08,39,5.60
2011,04,05,08,40,5.60
2011,04,05,08,41,5.70
2011,04,05,08,43,5.70
2011,04,05,08,44,5.80
2011,04,05,08,45,5.80
2011,04,05,08,47,5.90
2011,04,05,08,48,5.90
2011,04,05,08,49,6.00
2011,04,05,08,50,6.00
2011,04,05,08,52,6.10
2011,04,05,08,53,6.10
2011,04,05,08,54,6.10
2011,04,05,08,56,6.10
2011,04,05,08,57,6.10
2011,04,05,08,58,6.20
2011,04,05,08,59,6.20
2011,04,05,09,00,6.20
2011,04,05,09,02,6.20
2011,04,05,09,03,6.20
2011,04,05,09,04,6.20
2011,04,05,09,05,6.20
2011,04,05,09,06,6.20
2011,04,05,09,07,6.30
2011,04,05,09,08,6.30
2011,04,05,09,10,6.30
2011,04,05,09,11,6.30
2011,04,05,09,12,6.30
2011,04,05,09,14,6.30
2011,04,05,09,15,6.30
2011,04,05,09,16,6.30
2011,04,05,09,17,6.30
2011,04,05,09,19,6.30
2011,04,05,09,20,6.30
2011,04,05,09,21,6.30
2011,04,05,09,22,6.30
2011,04,05,09,24,6.30
2011,04,05,09,25,6.30
2011,04,05,09,26,6.30
2011,04,05,09,27,6.30
2011,04,05,09,28,6.30
2011,04,05,09,29,6.30
2011,04,05,09,30,6.30
2011,04,05,09,31,6.30
2011,04,05,09,32,6.30
2011,04,05,09,34,6.20
2011,04,05,09,35,6.20
2011,04,05,09,36,6.20
2011,04,05,09,38,6.10
2011,04,05,09,39,6.10
2011,04,05,09,40,6.10
2011,04,05,09,41,6.10
2011,04,05,09,43,6.00
2011,04,05,09,44,6.00
2011,04,05,09,45,5.90
2011,04,05,09,46,5.90
2011,04,05,09,48,5.90
2011,04,05,09,49,5.90
2011,04,05,09,50,5.80
2011,04,05,09,51,5.80
2011,04,05,09,53,5.80
2011,04,05,09,54,5.80
2011,04,05,09,55,5.80
2011,04,05,09,57,5.80
2011,04,05,09,58,5.80
2011,04,05,09,59,5.80
2011,04,05,10,00,5.80
2011,04,05,10,01,5.80
2011,04,05,10,03,5.80
2011,04,05,10,04,5.80
2011,04,05,10,05,5.80
2011,04,05,10,07,5.80
2011,04,05,10,08,5.80
2011,04,05,10,09,5.80
2011,04,05,10,10,5.80
2011,04,05,10,12,5.80
2011,04,05,10,13,5.80
2011,04,05,10,14,5.80
2011,04,05,10,15,5.80
2011,04,05,10,17,5.80
2011,04,05,10,18,5.80
2011,04,05,10,19,5.80
2011,04,05,10,20,5.80
2011,04,05,10,22,5.80
2011,04,05,10,23,5.80
2011,04,05,10,24,5.80
2011,04,05,10,25,5.80
2011,04,05,10,27,5.70
2011,04,05,10,28,5.70
2011,04,05,10,29,5.70
2011,04,05,10,30,5.60
2011,04,05,10,32,5.60
2011,04,05,10,33,5.60
2011,04,05,10,34,5.60
2011,04,05,10,35,5.60
2011,04,05,10,36,5.60
2011,04,05,10,37,5.70
2011,04,05,10,38,5.70
2011,04,05,10,39,5.70
2011,04,05,10,40,5.70
2011,04,05,10,41,5.70
2011,04,05,10,42,5.70
2011,04,05,10,43,5.70
2011,04,05,10,45,5.80
2011,04,05,10,46,5.80
2011,04,05,10,47,5.80
2011,04,05,10,48,5.70
2011,04,05,10,49,5.70
2011,04,05,10,50,5.70
2011,04,05,10,51,5.70
2011,04,05,10,52,5.70
2011,04,05,10,54,5.70
2011,04,05,10,55,5.70
2011,04,05,10,56,5.60
2011,04,05,10,57,5.60
2011,04,05,10,58,5.60
2011,04,05,10,59,5.60
2011,04,05,11,00,5.60
2011,04,05,11,01,5.60
2011,04,05,11,02,5.70
2011,04,05,11,03,5.70
2011,04,05,11,04,5.70
2011,04,05,11,05,5.70
2011,04,05,11,06,5.70
2011,04,05,11,07,5.70
2011,04,05,11,08,5.70
2011,04,05,11,09,5.70
2011,04,05,11,11,5.80
2011,04,05,11,12,5.70
2011,04,05,11,13,5.70
2011,04,05,11,14,5.70
2011,04,05,11,15,5.70
2011,04,05,11,16,5.70
2011,04,05,11,17,5.60
2011,04,05,11,18,5.60
2011,04,05,11,19,5.60
2011,04,05,11,20,5.60
2011,04,05,11,21,5.60
2011,04,05,11,22,5.60
2011,04,05,11,23,5.60
2011,04,05,11,24,5.50
2011,04,05,11,25,5.40
2011,04,05,11,26,5.40
2011,04,05,11,27,5.30
2011,04,05,11,28,5.30
2011,04,05,11,29,5.20
2011,04,05,11,31,5.20
2011,04,05,11,32,5.20
2011,04,05,11,33,5.20
2011,04,05,11,34,5.20
2011,04,05,11,36,5.20
2011,04,05,11,37,5.20
2011,04,05,11,38,5.20
2011,04,05,11,39,5.10
2011,04,05,11,41,5.10
2011,04,05,11,42,5.00
2011,04,05,11,43,5.10
2011,04,05,11,44,5.10
2011,04,05,11,45,5.20
2011,04,05,11,47,5.20
2011,04,05,11,48,5.30
2011,04,05,11,49,5.30
2011,04,05,11,50,5.40
2011,04,05,11,52,5.40
2011,04,05,11,53,5.50
2011,04,05,11,54,5.60
2011,04,05,11,55,5.60
2011,04,05,11,57,5.70
2011,04,05,11,58,5.80
2011,04,05,11,59,5.90
2011,04,05,12,00,6.10
2011,04,05,12,01,6.20
2011,04,05,12,02,6.20
2011,04,05,12,03,6.30
2011,04,05,12,04,6.40
2011,04,05,12,05,6.40
2011,04,05,12,07,6.50
2011,04,05,12,08,6.60
2011,04,05,12,09,6.60
2011,04,05,12,11,6.70
2011,04,05,12,12,6.80
2011,04,05,12,13,6.90
2011,04,05,12,15,7.00
2011,04,05,12,16,7.10
2011,04,05,12,17,7.10
2011,04,05,12,18,7.10
2011,04,05,12,20,7.20
2011,04,05,12,21,7.20
2011,04,05,12,22,7.20
2011,04,05,12,23,7.20
2011,04,05,12,24,7.20
2011,04,05,12,26,7.20
2011,04,05,12,27,7.20
2011,04,05,12,28,7.20
2011,04,05,12,29,7.30
2011,04,05,12,31,7.30
2011,04,05,12,32,7.40
2011,04,05,12,33,7.50
2011,04,05,12,35,7.50
2011,04,05,12,36,7.60
2011,04,05,12,37,7.60
2011,04,05,12,38,7.60
2011,04,05,12,39,7.70
2011,04,05,12,41,7.70
2011,04,05,12,42,7.80
2011,04,05,12,43,7.90
2011,04,05,12,44,7.90
2011,04,05,12,45,8.00
2011,04,05,12,47,8.10
2011,04,05,12,48,8.10
2011,04,05,12,49,8.20
2011,04,05,12,51,8.20
2011,04,05,12,52,8.30
2011,04,05,12,53,8.30
2011,04,05,12,55,8.40
2011,04,05,12,56,8.50
2011,04,05,12,57,8.60
2011,04,05,12,58,8.70
2011,04,05,12,59,8.70
2011,04,05,13,00,8.70
2011,04,05,13,01,8.50
2011,04,05,13,02,8.30
2011,04,05,13,03,8.10
2011,04,05,13,05,7.80
2011,04,05,13,06,7.70
2011,04,05,13,07,7.60
2011,04,05,13,09,7.50
2011,04,05,13,10,7.40
2011,04,05,13,11,7.40
2011,04,05,13,12,7.30
2011,04,05,13,14,7.30
2011,04,05,13,15,7.30
2011,04,05,13,16,7.30
2011,04,05,13,17,7.30
2011,04,05,13,18,7.30
2011,04,05,13,20,7.30
2011,04,05,13,21,7.20
2011,04,05,13,22,7.20
2011,04,05,13,23,7.20
2011,04,05,13,25,7.20
2011,04,05,13,26,7.30
2011,04,05,13,27,7.40
2011,04,05,13,28,7.50
2011,04,05,13,30,7.50
2011,04,05,13,31,7.60
2011,04,05,13,32,7.60
2011,04,05,13,33,7.60
2011,04,05,13,34,7.60
2011,04,05,13,35,7.60
2011,04,05,13,36,7.60
2011,04,05,13,37,7.60
2011,04,05,13,38,7.60
2011,04,05,13,39,7.50
2011,04,05,13,40,7.50
2011,04,05,13,41,7.50
2011,04,05,13,42,7.60
2011,04,05,13,43,7.60
2011,04,05,13,44,7.60
2011,04,05,13,45,7.60
2011,04,05,13,46,7.70
2011,04,05,13,47,7.70
2011,04,05,13,48,7.70
2011,04,05,13,49,7.70
2011,04,05,13,50,7.70
2011,04,05,13,51,7.80
2011,04,05,13,52,7.80
2011,04,05,13,53,7.80
2011,04,05,13,54,7.80
2011,04,05,13,55,7.80
2011,04,05,13,56,7.80
2011,04,05,13,57,7.80
2011,04,05,13,58,7.80
2011,04,05,13,59,7.90
2011,04,05,14,00,7.90
2011,04,05,14,01,8.00
2011,04,05,14,02,7.90
2011,04,05,14,03,7.90
2011,04,05,14,04,7.90
2011,04,05,14,05,7.90
2011,04,05,14,06,7.80
2011,04,05,14,07,7.80
2011,04,05,14,08,7.80
2011,04,05,14,09,7.70
2011,04,05,14,10,7.70
2011,04,05,14,11,7.70
2011,04,05,14,12,7.70
2011,04,05,14,13,7.70
2011,04,05,14,14,7.60
2011,04,05,14,15,7.50
2011,04,05,14,16,7.30
2011,04,05,14,17,7.20
2011,04,05,14,18,7.10
2011,04,05,14,19,7.00
2011,04,05,14,20,6.80
2011,04,05,14,21,6.70
2011,04,05,14,22,6.60
2011,04,05,14,23,6.50
2011,04,05,14,24,6.40
2011,04,05,14,25,6.30
2011,04,05,14,26,6.30
2011,04,05,14,27,6.20
2011,04,05,14,28,6.20
2011,04,05,14,29,6.20
2011,04,05,14,30,6.10
2011,04,05,14,31,6.10
2011,04,05,14,33,6.10
2011,04,05,14,34,6.10
2011,04,05,14,35,6.20
2011,04,05,14,36,6.20
2011,04,05,14,38,6.30
2011,04,05,14,39,6.30
2011,04,05,14,40,6.40
2011,04,05,14,41,6.40
2011,04,05,14,43,6.40
2011,04,05,14,44,6.40
2011,04,05,14,45,6.50
2011,04,05,14,47,6.60
2011,04,05,14,48,6.60
2011,04,05,14,49,6.70
2011,04,05,14,50,6.70
2011,04,05,14,52,6.80
2011,04,05,14,53,6.80
2011,04,05,14,54,6.90
2011,04,05,14,55,6.90
2011,04,05,14,57,6.90
2011,04,05,14,58,7.00
2011,04,05,14,59,7.10
2011,04,05,15,00,7.10
2011,04,05,15,01,7.10
2011,04,05,15,02,7.10
2011,04,05,15,03,7.10
2011,04,05,15,04,7.20
2011,04,05,15,05,7.20
2011,04,05,15,07,7.20
2011,04,05,15,08,7.30
2011,04,05,15,09,7.30
2011,04,05,15,10,7.30
2011,04,05,15,11,7.30
2011,04,05,15,12,7.40
2011,04,05,15,14,7.40
2011,04,05,15,15,7.50
2011,04,05,15,16,7.50
2011,04,05,15,17,7.60
2011,04,05,15,19,7.60
2011,04,05,15,20,7.60
2011,04,05,15,21,7.60
2011,04,05,15,22,7.60
2011,04,05,15,24,7.60
2011,04,05,15,25,7.60
2011,04,05,15,26,7.60
2011,04,05,15,27,7.60
2011,04,05,15,28,7.60
2011,04,05,15,29,7.60
2011,04,05,15,30,7.70
2011,04,05,15,31,7.70
2011,04,05,15,32,7.70
2011,04,05,15,33,7.70
2011,04,05,15,34,7.70
2011,04,05,15,35,7.70
2011,04,05,15,36,7.70
2011,04,05,15,37,7.80
2011,04,05,15,39,7.80
2011,04,05,15,40,7.80
2011,04,05,15,41,7.90
2011,04,05,15,42,7.90
2011,04,05,15,43,7.90
2011,04,05,15,44,7.90
2011,04,05,15,45,7.90
2011,04,05,15,46,8.00
2011,04,05,15,47,8.00
2011,04,05,15,48,8.00
2011,04,05,15,49,8.10
2011,04,05,15,50,8.10
2011,04,05,15,51,8.10
2011,04,05,15,52,8.10
2011,04,05,15,53,8.10
2011,04,05,15,54,8.10
2011,04,05,15,55,8.10
2011,04,05,15,56,8.20
2011,04,05,15,57,8.20
2011,04,05,15,58,8.20
2011,04,05,15,59,8.20
2011,04,05,16,00,8.20
2011,04,05,16,01,8.20
2011,04,05,16,02,8.20
2011,04,05,16,03,8.30
2011,04,05,16,05,8.30
2011,04,05,16,06,8.30
2011,04,05,16,07,8.30
2011,04,05,16,08,8.30
2011,04,05,16,10,8.30
2011,04,05,16,11,8.30
2011,04,05,16,12,8.30
2011,04,05,16,13,8.30
2011,04,05,16,14,8.30
2011,04,05,16,15,8.30
2011,04,05,16,16,8.40
2011,04,05,16,17,8.40
2011,04,05,16,18,8.40
2011,04,05,16,19,8.40
2011,04,05,16,20,8.40
2011,04,05,16,21,8.60
2011,04,05,16,22,8.70
2011,04,05,16,24,8.80
2011,04,05,16,25,9.10
2011,04,05,16,26,9.20
2011,04,05,16,27,9.30
2011,04,05,16,29,9.30
2011,04,05,16,30,9.40
2011,04,05,16,31,9.50
2011,04,05,16,32,9.50
2011,04,05,16,34,9.40
2011,04,05,16,35,9.30
2011,04,05,16,36,9.20
2011,04,05,16,37,9.20
2011,04,05,16,38,9.10
2011,04,05,16,39,9.10
2011,04,05,16,40,9.00
2011,04,05,16,41,8.90
2011,04,05,16,42,8.90
2011,04,05,16,43,9.00
2011,04,05,16,44,9.00
2011,04,05,16,45,9.00
2011,04,05,16,46,9.10
2011,04,05,16,47,9.10
2011,04,05,16,48,9.20
2011,04,05,16,49,9.20
2011,04,05,16,50,9.20
2011,04,05,16,51,9.30
2011,04,05,16,52,9.30
2011,04,05,16,54,9.30
2011,04,05,16,55,9.40
2011,04,05,16,56,9.60
2011,04,05,16,57,9.40
2011,04,05,16,59,9.40
2011,04,05,17,00,9.20
2011,04,05,17,01,9.20
2011,04,05,17,02,9.20
2011,04,05,17,03,9.20
2011,04,05,17,04,9.30
2011,04,05,17,05,9.30
2011,04,05,17,06,9.30
2011,04,05,17,07,9.30
2011,04,05,17,08,9.20
2011,04,05,17,09,9.20
2011,04,05,17,10,9.10
2011,04,05,17,11,8.90
2011,04,05,17,12,8.80
2011,04,05,17,13,8.70
2011,04,05,17,14,8.70
2011,04,05,17,15,8.60
2011,04,05,17,16,8.60
2011,04,05,17,17,8.60
2011,04,05,17,18,8.60
2011,04,05,17,19,8.50
2011,04,05,17,21,8.40
2011,04,05,17,22,8.40
2011,04,05,17,23,8.40
2011,04,05,17,24,8.30
2011,04,05,17,25,8.30
2011,04,05,17,26,8.30
2011,04,05,17,27,8.30
2011,04,05,17,28,8.20
2011,04,05,17,29,8.20
2011,04,05,17,30,8.20
2011,04,05,17,31,8.20
2011,04,05,17,32,8.10
2011,04,05,17,33,8.10
2011,04,05,17,34,8.10
2011,04,05,17,35,8.00
2011,04,05,17,37,7.90
2011,04,05,17,38,7.90
2011,04,05,17,39,7.90
2011,04,05,17,40,7.90
2011,04,05,17,42,7.90
2011,04,05,17,43,7.90
2011,04,05,17,44,7.90
2011,04,05,17,45,7.90
2011,04,05,17,46,7.90
2011,04,05,17,47,7.90
2011,04,05,17,48,7.80
2011,04,05,17,49,7.90
2011,04,05,17,51,7.80
2011,04,05,17,52,7.80
2011,04,05,17,53,7.80
2011,04,05,17,54,7.70
2011,04,05,17,55,7.70
2011,04,05,17,56,7.70
2011,04,05,17,57,7.70
2011,04,05,17,58,7.70
2011,04,05,17,59,7.60
2011,04,05,18,01,7.60
2011,04,05,18,02,7.60
2011,04,05,18,03,7.60
2011,04,05,18,04,7.60
2011,04,05,18,05,7.60
2011,04,05,18,06,7.60
2011,04,05,18,07,7.60
2011,04,05,18,08,7.50
2011,04,05,18,09,7.50
2011,04,05,18,11,7.50
2011,04,05,18,12,7.50
2011,04,05,18,13,7.40
2011,04,05,18,14,7.40
2011,04,05,18,15,7.40
2011,04,05,18,16,7.40
2011,04,05,18,17,7.40
2011,04,05,18,18,7.30
2011,04,05,18,20,7.30
2011,04,05,18,21,7.30
2011,04,05,18,22,7.30
2011,04,05,18,23,7.30
2011,04,05,18,25,7.20
2011,04,05,18,26,7.20
2011,04,05,18,27,7.10
2011,04,05,18,28,7.10
2011,04,05,18,30,7.00
2011,04,05,18,31,7.00
2011,04,05,18,32,6.90
2011,04,05,18,33,6.90
2011,04,05,18,34,6.90
2011,04,05,18,35,6.80
2011,04,05,18,36,6.80
2011,04,05,18,37,6.80
2011,04,05,18,38,6.80
2011,04,05,18,39,6.80
2011,04,05,18,40,6.80
2011,04,05,18,42,6.70
2011,04,05,18,43,6.60
2011,04,05,18,44,6.60
2011,04,05,18,45,6.50
2011,04,05,18,47,6.40
2011,04,05,18,48,6.40
2011,04,05,18,49,6.40
2011,04,05,18,50,6.40
2011,04,05,18,52,6.30
2011,04,05,18,53,6.30
2011,04,05,18,54,6.30
2011,04,05,18,55,6.30
2011,04,05,18,56,6.30
2011,04,05,18,57,6.30
2011,04,05,18,58,6.20
2011,04,05,18,59,6.20
2011,04,05,19,00,6.20
2011,04,05,19,01,6.20
2011,04,05,19,02,6.20
2011,04,05,19,03,6.20
2011,04,05,19,04,6.20
2011,04,05,19,05,6.10
2011,04,05,19,06,6.20
2011,04,05,19,07,6.10
2011,04,05,19,08,6.10
2011,04,05,19,09,6.10
2011,04,05,19,11,6.10
2011,04,05,19,12,6.00
2011,04,05,19,13,6.00
2011,04,05,19,14,5.90
2011,04,05,19,15,5.90
2011,04,05,19,16,5.90
2011,04,05,19,17,5.90
2011,04,05,19,18,5.90
2011,04,05,19,19,5.90
2011,04,05,19,20,5.90
2011,04,05,19,21,5.80
2011,04,05,19,22,5.80
2011,04,05,19,23,5.80
2011,04,05,19,24,5.80
2011,04,05,19,25,5.80
2011,04,05,19,26,5.80
2011,04,05,19,27,5.80
2011,04,05,19,28,5.80
2011,04,05,19,29,5.80
2011,04,05,19,31,5.70
2011,04,05,19,32,5.70
2011,04,05,19,33,5.70
2011,04,05,19,34,5.70
2011,04,05,19,36,5.60
2011,04,05,19,37,5.60
2011,04,05,19,38,5.60
2011,04,05,19,40,5.60
2011,04,05,19,41,5.60
2011,04,05,19,42,5.60
2011,04,05,19,43,5.60
2011,04,05,19,44,5.60
2011,04,05,19,46,5.60
2011,04,05,19,47,5.50
2011,04,05,19,48,5.50
2011,04,05,19,49,5.50
2011,04,05,19,51,5.40
2011,04,05,19,52,5.40
2011,04,05,19,53,5.40
2011,04,05,19,54,5.40
2011,04,05,19,56,5.40
2011,04,05,19,57,5.40
2011,04,05,19,58,5.40
2011,04,05,19,59,5.30
2011,04,05,20,00,5.30
2011,04,05,20,02,5.30
2011,04,05,20,03,5.30
2011,04,05,20,04,5.30
2011,04,05,20,05,5.30
2011,04,05,20,07,5.30
2011,04,05,20,08,5.30
2011,04,05,20,09,5.20
2011,04,05,20,10,5.20
2011,04,05,20,12,5.20
2011,04,05,20,13,5.20
2011,04,05,20,14,5.20
2011,04,05,20,15,5.20
2011,04,05,20,16,5.20
2011,04,05,20,18,5.20
2011,04,05,20,19,5.10
2011,04,05,20,20,5.10
2011,04,05,20,21,5.10
2011,04,05,20,23,5.10
2011,04,05,20,24,5.10
2011,04,05,20,25,5.10
2011,04,05,20,26,5.10
2011,04,05,20,28,5.10
2011,04,05,20,29,5.10
2011,04,05,20,30,5.00
2011,04,05,20,31,5.00
2011,04,05,20,32,5.00
2011,04,05,20,33,5.00
2011,04,05,20,34,5.00
2011,04,05,20,35,4.90
2011,04,05,20,36,4.90
2011,04,05,20,37,4.90